User: anonymous
Location: Goheenville
(40.9070°N, 79.3720°W)
Time: 14:16:18
(UTC-04:00)
Language:

Meteor 2-10 Rocket - Orbit

View from above orbital plane
View from above orbital plane
View from above satellite
View from above satellite

Ground track
Ground track

The orbit data is extracted from the following two-line orbital elements,

1 14453U 83109B   14205.14899375  .00000070  00000-0  23609-4 0  1955
2 14453 081.1662 091.5952 0104176 246.8506 266.5513 14.24502829596740
Epoch (UTC): 24 July 2014 03:34:33
Eccentricity: 0.0104176
inclination: 81.1662°
perigee height: 735 km
apogee height: 885 km
right ascension of ascending node: 91.5952°
argument of perigee: 246.8506°
revolutions per day: 14.24502829
mean anomaly at epoch: 266.5513°
orbit number at epoch: 59674

The dashed part of the orbit path shows where the satellite is in the earth's shadow,  

DLR